EJU56KV LIRN-LFMN

Flight info

Callsign EJU56KV
Flight time 1h 22m
Altitude 30000
Route VEXUV DCT PNZ DCT RIFFI DCT ELVIN DCT TOBGA DCT DOBIM DCT AKUTI R16 KERIT
Aircraft A20N/M-SDE2E3FGHIJ1RWXYZ/LB1G1

Departure

Time 2026-05-06 13:05
Airport Naples International Airport (LIRN)

Arrival

Time 2026-05-06 14:27
Airport Nice-Côte d'Azur Airport (LFMN)
Time Latitude Longitude Altitude Speed Heading
2026-05-06 12:35 40.87772 14.28012 294 ft 0 kts 142°
2026-05-06 12:52 40.87776 14.28008 294 ft 2 kts 142°
2026-05-06 12:52 40.87788 14.27996 294 ft 2 kts 141°
2026-05-06 12:53 40.87800 14.27984 294 ft 2 kts 142°
2026-05-06 12:53 40.87808 14.27976 294 ft 2 kts 142°
2026-05-06 12:53 40.87815 14.27960 294 ft 2 kts 97°
2026-05-06 12:53 40.87813 14.27940 294 ft 2 kts 58°
2026-05-06 12:54 40.87803 14.27926 294 ft 2 kts 20°
2026-05-06 12:54 40.87793 14.27924 294 ft 0 kts 357°
2026-05-06 12:54 40.87786 14.27925 294 ft 0 kts 354°
2026-05-06 12:57 40.87795 14.27924 294 ft 3 kts 355°
2026-05-06 12:57 40.87830 14.27927 294 ft 7 kts 15°
2026-05-06 12:57 40.87872 14.27977 293 ft 8 kts 51°
2026-05-06 12:58 40.87916 14.28051 291 ft 11 kts 52°
2026-05-06 12:58 40.87980 14.28118 290 ft 12 kts 22°
2026-05-06 12:58 40.88048 14.28194 289 ft 14 kts 58°
2026-05-06 12:58 40.88062 14.28332 287 ft 16 kts 96°
2026-05-06 12:59 40.88047 14.28480 285 ft 16 kts 99°
2026-05-06 12:59 40.88055 14.28623 282 ft 16 kts 52°
2026-05-06 12:59 40.88124 14.28748 279 ft 17 kts 53°
2026-05-06 12:59 40.88202 14.28883 274 ft 19 kts 52°
2026-05-06 13:00 40.88284 14.29025 272 ft 19 kts 54°
2026-05-06 13:00 40.88370 14.29173 266 ft 21 kts 49°
2026-05-06 13:00 40.88465 14.29333 261 ft 22 kts 54°
2026-05-06 13:00 40.88562 14.29507 256 ft 24 kts 54°
2026-05-06 13:01 40.88668 14.29696 251 ft 26 kts 53°
2026-05-06 13:01 40.88783 14.29884 245 ft 26 kts 53°
2026-05-06 13:01 40.88894 14.30080 239 ft 27 kts 53°
2026-05-06 13:01 40.88983 14.30233 236 ft 12 kts 52°
2026-05-06 13:02 40.89039 14.30262 235 ft 6 kts 336°
2026-05-06 13:02 40.89044 14.30259 235 ft 0 kts 329°
2026-05-06 13:03 40.89045 14.30259 235 ft 0 kts 329°
2026-05-06 13:03 40.89062 14.30244 235 ft 6 kts 328°
2026-05-06 13:04 40.89109 14.30196 236 ft 9 kts 294°
2026-05-06 13:04 40.89090 14.30106 237 ft 16 kts 236°
2026-05-06 13:04 40.88967 14.29857 243 ft 58 kts 237°
2026-05-06 13:04 40.88629 14.29140 263 ft 124 kts 238°
2026-05-06 13:05 40.88090 14.27972 431 ft 162 kts 238°
2026-05-06 13:05 40.87492 14.26667 915 ft 173 kts 229°
2026-05-06 13:05 40.86551 14.25794 1692 ft 168 kts 197°
2026-05-06 13:05 40.85430 14.25716 2417 ft 164 kts 175°
2026-05-06 13:06 40.84281 14.25959 2960 ft 171 kts 172°
2026-05-06 13:06 40.83075 14.26209 3387 ft 186 kts 174°
2026-05-06 13:06 40.81747 14.26461 3925 ft 195 kts 174°
2026-05-06 13:06 40.80408 14.26721 4593 ft 198 kts 174°
2026-05-06 13:07 40.79052 14.26991 5280 ft 200 kts 174°
2026-05-06 13:07 40.77671 14.27268 5962 ft 202 kts 175°
2026-05-06 13:07 40.76283 14.27547 6655 ft 205 kts 175°
2026-05-06 13:07 40.74880 14.27831 7356 ft 207 kts 175°
2026-05-06 13:08 40.73466 14.28116 8036 ft 209 kts 175°
2026-05-06 13:08 40.72022 14.28398 8706 ft 211 kts 179°
2026-05-06 13:08 40.70580 14.28108 9150 ft 218 kts 214°
2026-05-06 13:08 40.69394 14.26813 9620 ft 231 kts 226°
2026-05-06 13:09 40.68167 14.25337 10088 ft 249 kts 224°
2026-05-06 13:09 40.66821 14.23777 10566 ft 267 kts 223°
2026-05-06 13:09 40.65385 14.22134 11063 ft 281 kts 223°
2026-05-06 13:09 40.63894 14.20438 11828 ft 286 kts 222°
2026-05-06 13:10 40.62383 14.18722 12659 ft 289 kts 222°
2026-05-06 13:10 40.60865 14.16996 13434 ft 292 kts 222°
2026-05-06 13:10 40.59333 14.15257 14213 ft 295 kts 222°
2026-05-06 13:10 40.57790 14.13505 15012 ft 297 kts 222°
2026-05-06 13:11 40.56233 14.11738 15821 ft 298 kts 222°
2026-05-06 13:11 40.54675 14.09971 16589 ft 298 kts 222°
2026-05-06 13:11 40.53100 14.08184 17340 ft 300 kts 222°
2026-05-06 13:11 40.51555 14.06366 18091 ft 300 kts 227°
2026-05-06 13:12 40.50293 14.04229 18790 ft 302 kts 239°
2026-05-06 13:12 40.49371 14.01730 19485 ft 304 kts 248°
2026-05-06 13:12 40.48632 13.99159 20153 ft 307 kts 249°
2026-05-06 13:12 40.47894 13.96531 20806 ft 309 kts 249°
2026-05-06 13:13 40.47155 13.93896 21448 ft 311 kts 249°
2026-05-06 13:13 40.46409 13.91240 22079 ft 313 kts 249°
2026-05-06 13:13 40.45657 13.88578 22708 ft 314 kts 249°
2026-05-06 13:13 40.44898 13.85891 23336 ft 316 kts 249°
2026-05-06 13:14 40.44127 13.83164 23914 ft 319 kts 250°
2026-05-06 13:14 40.43397 13.80446 24457 ft 322 kts 255°
2026-05-06 13:14 40.43211 13.77500 24989 ft 328 kts 273°
2026-05-06 13:14 40.43779 13.74601 25475 ft 340 kts 289°
2026-05-06 13:15 40.45087 13.71911 25685 ft 359 kts 303°
2026-05-06 13:15 40.46683 13.69319 25919 ft 370 kts 303°
2026-05-06 13:15 40.48314 13.66661 26141 ft 380 kts 303°
2026-05-06 13:15 40.49959 13.63969 26467 ft 386 kts 303°
2026-05-06 13:16 40.51647 13.61211 27008 ft 386 kts 304°
2026-05-06 13:16 40.53328 13.58464 27634 ft 384 kts 303°
2026-05-06 13:16 40.54990 13.55747 28268 ft 382 kts 303°
2026-05-06 13:16 40.56630 13.53060 28813 ft 381 kts 303°
2026-05-06 13:17 40.58285 13.50341 29223 ft 384 kts 303°
2026-05-06 13:17 40.59973 13.47561 29674 ft 385 kts 303°
2026-05-06 13:17 40.61646 13.44809 29974 ft 388 kts 303°
2026-05-06 13:18 40.65004 13.39277 29987 ft 388 kts 303°
2026-05-06 13:18 40.68372 13.33710 29993 ft 389 kts 302°
2026-05-06 13:19 40.71729 13.28161 29991 ft 389 kts 302°
2026-05-06 13:19 40.75082 13.22609 29992 ft 389 kts 302°
2026-05-06 13:20 40.78457 13.17004 29988 ft 391 kts 302°
2026-05-06 13:20 40.81828 13.11389 29987 ft 389 kts 302°
2026-05-06 13:21 40.85168 13.05821 29995 ft 390 kts 302°
2026-05-06 13:21 40.88547 13.00168 29993 ft 391 kts 302°
2026-05-06 13:22 40.92017 12.94669 29990 ft 393 kts 307°
2026-05-06 13:22 40.95822 12.89477 29985 ft 392 kts 308°
2026-05-06 13:23 40.99626 12.84343 29991 ft 392 kts 308°
2026-05-06 13:23 41.03440 12.79178 29988 ft 392 kts 308°
2026-05-06 13:24 41.07228 12.74030 29987 ft 392 kts 308°
2026-05-06 13:24 41.11042 12.68841 29986 ft 392 kts 307°
2026-05-06 13:25 41.14851 12.63644 29986 ft 393 kts 307°
2026-05-06 13:25 41.18674 12.58418 29986 ft 393 kts 307°
2026-05-06 13:26 41.22454 12.53244 29980 ft 392 kts 307°
2026-05-06 13:26 41.26250 12.48054 29979 ft 392 kts 307°
2026-05-06 13:27 41.30025 12.42881 29977 ft 392 kts 307°
2026-05-06 13:27 41.33801 12.37695 29979 ft 392 kts 307°
2026-05-06 13:28 41.37587 12.32482 29978 ft 391 kts 306°
2026-05-06 13:28 41.41366 12.27272 29978 ft 390 kts 306°
2026-05-06 13:29 41.45123 12.22078 29979 ft 390 kts 306°
2026-05-06 13:29 41.48864 12.16885 29980 ft 390 kts 305°
2026-05-06 13:30 41.52407 12.11429 29981 ft 388 kts 302°
2026-05-06 13:30 41.55897 12.05893 29981 ft 387 kts 302°
2026-05-06 13:31 41.59347 12.00406 29977 ft 388 kts 301°
2026-05-06 13:31 41.62805 11.94903 29970 ft 388 kts 302°
2026-05-06 13:32 41.66277 11.89368 29971 ft 387 kts 302°
2026-05-06 13:32 41.69746 11.83826 29966 ft 387 kts 301°
2026-05-06 13:33 41.73288 11.78159 29964 ft 387 kts 302°
2026-05-06 13:33 41.76740 11.72623 29961 ft 387 kts 301°
2026-05-06 13:34 41.80179 11.67104 29957 ft 386 kts 302°
2026-05-06 13:34 41.83649 11.61523 29958 ft 386 kts 302°
2026-05-06 13:35 41.87083 11.55986 29953 ft 386 kts 301°
2026-05-06 13:35 41.90625 11.50267 29952 ft 386 kts 302°
2026-05-06 13:36 41.94063 11.44706 29949 ft 386 kts 301°
2026-05-06 13:36 41.97517 11.39108 29946 ft 385 kts 301°
2026-05-06 13:37 42.00973 11.33496 29948 ft 385 kts 301°
2026-05-06 13:37 42.04420 11.27888 29935 ft 384 kts 301°
2026-05-06 13:38 42.07809 11.22359 29939 ft 383 kts 301°
2026-05-06 13:38 42.11230 11.16774 29939 ft 383 kts 301°
2026-05-06 13:39 42.14643 11.11192 29934 ft 383 kts 301°
2026-05-06 13:39 42.18021 11.05652 29936 ft 383 kts 301°
2026-05-06 13:40 42.21391 11.00117 29928 ft 384 kts 301°
2026-05-06 13:40 42.24801 10.94507 29933 ft 385 kts 301°
2026-05-06 13:41 42.28192 10.88917 29927 ft 385 kts 301°
2026-05-06 13:41 42.31566 10.83347 29927 ft 386 kts 301°
2026-05-06 13:42 42.34944 10.77759 29914 ft 384 kts 301°
2026-05-06 13:42 42.38318 10.72164 29927 ft 386 kts 301°
2026-05-06 13:43 42.41692 10.66563 29924 ft 385 kts 301°
2026-05-06 13:43 42.45066 10.60949 29924 ft 385 kts 301°
2026-05-06 13:44 42.48428 10.55343 29919 ft 385 kts 301°
2026-05-06 13:44 42.51820 10.49676 29913 ft 385 kts 301°
2026-05-06 13:45 42.55184 10.44048 29918 ft 385 kts 301°
2026-05-06 13:45 42.60213 10.35611 29911 ft 384 kts 301°
2026-05-06 13:46 42.63576 10.29955 29908 ft 384 kts 301°
2026-05-06 13:46 42.66945 10.24278 29911 ft 384 kts 301°
2026-05-06 13:47 42.70297 10.18621 29909 ft 384 kts 301°
2026-05-06 13:47 42.73649 10.12951 29908 ft 384 kts 300°
2026-05-06 13:48 42.76972 10.07320 29905 ft 384 kts 300°
2026-05-06 13:48 42.80316 10.01640 29902 ft 384 kts 300°
2026-05-06 13:49 42.83641 9.95980 29901 ft 384 kts 300°
2026-05-06 13:49 42.86961 9.90321 29903 ft 383 kts 300°
2026-05-06 13:50 42.90231 9.84596 29900 ft 382 kts 298°
2026-05-06 13:50 42.93377 9.78736 29897 ft 382 kts 297°
2026-05-06 13:51 42.96138 9.72621 29898 ft 380 kts 290°
2026-05-06 13:51 42.98430 9.66166 29897 ft 379 kts 287°
2026-05-06 13:52 43.00645 9.59659 29894 ft 378 kts 287°
2026-05-06 13:52 43.02867 9.53124 29867 ft 380 kts 287°
2026-05-06 13:53 43.03970 9.49873 29608 ft 378 kts 287°
2026-05-06 13:53 43.05072 9.46630 29344 ft 377 kts 287°
2026-05-06 13:53 43.06170 9.43392 29078 ft 374 kts 287°
2026-05-06 13:53 43.07255 9.40188 28815 ft 372 kts 287°
2026-05-06 13:54 43.08342 9.36974 28552 ft 371 kts 287°
2026-05-06 13:54 43.09418 9.33783 28292 ft 371 kts 287°
2026-05-06 13:54 43.10503 9.30559 28016 ft 371 kts 287°
2026-05-06 13:54 43.11591 9.27327 27680 ft 371 kts 287°
2026-05-06 13:55 43.12681 9.24083 27247 ft 373 kts 287°
2026-05-06 13:55 43.13759 9.20871 26701 ft 373 kts 287°
2026-05-06 13:55 43.14835 9.17662 26100 ft 374 kts 287°
2026-05-06 13:55 43.15921 9.14423 25482 ft 376 kts 287°
2026-05-06 13:56 43.17004 9.11187 24846 ft 378 kts 287°
2026-05-06 13:56 43.18089 9.07941 24191 ft 380 kts 287°
2026-05-06 13:56 43.19185 9.04658 23623 ft 379 kts 288°
2026-05-06 13:56 43.20281 9.01376 23155 ft 376 kts 288°
2026-05-06 13:57 43.21362 8.98137 22683 ft 373 kts 288°
2026-05-06 13:57 43.22434 8.94926 22213 ft 370 kts 288°
2026-05-06 13:57 43.23493 8.91743 21751 ft 367 kts 288°
2026-05-06 13:57 43.24535 8.88608 21290 ft 364 kts 288°
2026-05-06 13:58 43.25579 8.85466 20821 ft 362 kts 288°
2026-05-06 13:58 43.26614 8.82346 20350 ft 359 kts 288°
2026-05-06 13:58 43.27641 8.79247 19880 ft 357 kts 288°
2026-05-06 13:58 43.28661 8.76164 19418 ft 354 kts 288°
2026-05-06 13:59 43.29670 8.73110 18956 ft 351 kts 288°
2026-05-06 13:59 43.30661 8.70103 18500 ft 349 kts 289°
2026-05-06 13:59 43.31659 8.67075 18042 ft 346 kts 289°
2026-05-06 13:59 43.32647 8.64078 17587 ft 344 kts 289°
2026-05-06 14:00 43.33526 8.61057 17119 ft 338 kts 281°
2026-05-06 14:00 43.33918 8.57959 16711 ft 329 kts 269°
2026-05-06 14:00 43.33845 8.54850 16716 ft 328 kts 261°
2026-05-06 14:00 43.33597 8.51712 16734 ft 328 kts 261°
2026-05-06 14:01 43.33337 8.48600 16756 ft 329 kts 261°
2026-05-06 14:01 43.33078 8.45523 16780 ft 328 kts 261°
2026-05-06 14:01 43.32814 8.42394 16802 ft 329 kts 261°
2026-05-06 14:01 43.32552 8.39297 16805 ft 329 kts 261°
2026-05-06 14:02 43.32288 8.36196 16316 ft 330 kts 261°
2026-05-06 14:02 43.32019 8.33039 15787 ft 329 kts 260°
2026-05-06 14:02 43.31756 8.29944 15317 ft 328 kts 261°
2026-05-06 14:02 43.31492 8.26834 14838 ft 326 kts 261°
2026-05-06 14:03 43.31232 8.23779 14373 ft 325 kts 261°
2026-05-06 14:03 43.30967 8.20700 13924 ft 323 kts 261°
2026-05-06 14:03 43.30705 8.17656 13486 ft 320 kts 262°
2026-05-06 14:03 43.30446 8.14641 13029 ft 318 kts 261°
2026-05-06 14:04 43.30344 8.11629 12601 ft 318 kts 273°
2026-05-06 14:04 43.30835 8.08680 12148 ft 321 kts 288°
2026-05-06 14:04 43.31837 8.05937 11696 ft 322 kts 296°
2026-05-06 14:04 43.32947 8.03274 11262 ft 320 kts 296°
2026-05-06 14:05 43.34059 8.00626 10824 ft 319 kts 296°
2026-05-06 14:05 43.35153 7.98004 10388 ft 317 kts 296°
2026-05-06 14:05 43.36219 7.95435 10187 ft 305 kts 296°
2026-05-06 14:05 43.37252 7.92946 10067 ft 292 kts 296°
2026-05-06 14:06 43.38216 7.90620 9939 ft 273 kts 296°
2026-05-06 14:06 43.39139 7.88380 9780 ft 269 kts 296°
2026-05-06 14:06 43.40067 7.86116 9356 ft 275 kts 296°
2026-05-06 14:06 43.40985 7.83820 8983 ft 273 kts 291°
2026-05-06 14:07 43.41565 7.81361 8638 ft 268 kts 278°
2026-05-06 14:07 43.41755 7.78854 8294 ft 266 kts 272°
2026-05-06 14:07 43.41857 7.76334 7956 ft 265 kts 271°
2026-05-06 14:07 43.41951 7.73804 7657 ft 263 kts 271°
2026-05-06 14:08 43.42044 7.71314 7381 ft 263 kts 271°
2026-05-06 14:08 43.42139 7.68802 7089 ft 262 kts 272°
2026-05-06 14:08 43.42236 7.66306 6901 ft 260 kts 272°
2026-05-06 14:08 43.42332 7.63841 6852 ft 260 kts 272°
2026-05-06 14:09 43.42429 7.61342 6834 ft 261 kts 271°
2026-05-06 14:09 43.42527 7.58836 6845 ft 262 kts 272°
2026-05-06 14:09 43.42624 7.56351 6847 ft 262 kts 272°
2026-05-06 14:09 43.42952 7.53868 6828 ft 266 kts 292°
2026-05-06 14:10 43.44046 7.51852 6845 ft 272 kts 319°
2026-05-06 14:10 43.45779 7.50701 6827 ft 279 kts 345°
2026-05-06 14:10 43.47702 7.50404 6820 ft 282 kts 358°
2026-05-06 14:10 43.49668 7.50565 6823 ft 283 kts
2026-05-06 14:11 43.51625 7.50617 6837 ft 280 kts 351°
2026-05-06 14:11 43.53525 7.50244 6844 ft 267 kts 347°
2026-05-06 14:11 43.55304 7.49811 6700 ft 257 kts 347°
2026-05-06 14:11 43.57048 7.49368 6425 ft 252 kts 345°
2026-05-06 14:12 43.58598 7.48454 6177 ft 239 kts 315°
2026-05-06 14:12 43.59612 7.46723 5948 ft 231 kts 300°
2026-05-06 14:12 43.60443 7.44866 5700 ft 227 kts 299°
2026-05-06 14:12 43.61274 7.43037 5449 ft 223 kts 300°
2026-05-06 14:13 43.62121 7.41262 5218 ft 218 kts 302°
2026-05-06 14:13 43.62963 7.39557 4873 ft 212 kts 302°
2026-05-06 14:13 43.63799 7.37891 4413 ft 212 kts 303°
2026-05-06 14:13 43.64633 7.36243 3875 ft 214 kts 303°
2026-05-06 14:14 43.65492 7.34548 3242 ft 221 kts 302°
2026-05-06 14:14 43.66402 7.32751 2522 ft 228 kts 302°
2026-05-06 14:14 43.67293 7.30999 2118 ft 221 kts 302°
2026-05-06 14:14 43.68150 7.29317 1884 ft 212 kts 302°
2026-05-06 14:15 43.68969 7.27647 1382 ft 209 kts 300°
2026-05-06 14:15 43.69507 7.25931 1325 ft 187 kts 265°
2026-05-06 14:15 43.68973 7.24350 1280 ft 181 kts 228°
2026-05-06 14:15 43.68067 7.23046 1108 ft 208 kts 225°
2026-05-06 14:16 43.66930 7.21540 1454 ft 237 kts 222°
2026-05-06 14:16 43.65684 7.20055 2309 ft 244 kts 220°
2026-05-06 14:16 43.64366 7.18555 3174 ft 237 kts 221°
2026-05-06 14:16 43.63248 7.17073 3848 ft 219 kts 227°
2026-05-06 14:17 43.62223 7.15546 4374 ft 219 kts 228°
2026-05-06 14:17 43.61180 7.14014 4175 ft 217 kts 224°
2026-05-06 14:17 43.59871 7.13059 4066 ft 220 kts 191°
2026-05-06 14:17 43.58335 7.12899 4043 ft 221 kts 184°
2026-05-06 14:18 43.56799 7.12833 4028 ft 221 kts 184°
2026-05-06 14:18 43.55265 7.12724 4000 ft 218 kts 186°
2026-05-06 14:18 43.53754 7.12570 3662 ft 216 kts 187°
2026-05-06 14:18 43.52262 7.12390 3207 ft 218 kts 187°
2026-05-06 14:19 43.50759 7.12200 3026 ft 214 kts 186°
2026-05-06 14:19 43.49284 7.12424 3015 ft 221 kts 159°
2026-05-06 14:19 43.48095 7.13791 3021 ft 227 kts 123°
2026-05-06 14:19 43.47637 7.15851 3015 ft 232 kts 88°
2026-05-06 14:20 43.48120 7.17922 3018 ft 233 kts 52°
2026-05-06 14:20 43.49226 7.19558 3031 ft 232 kts 44°
2026-05-06 14:20 43.50376 7.21143 3024 ft 232 kts 44°
2026-05-06 14:20 43.51500 7.22714 3020 ft 232 kts 44°
2026-05-06 14:21 43.52630 7.24314 3022 ft 233 kts 45°
2026-05-06 14:21 43.53758 7.25923 3022 ft 233 kts 45°
2026-05-06 14:21 43.54876 7.27528 3024 ft 232 kts 45°
2026-05-06 14:21 43.55985 7.29123 2982 ft 233 kts 45°
2026-05-06 14:22 43.57108 7.30742 2876 ft 232 kts 45°
2026-05-06 14:22 43.58213 7.32338 2777 ft 232 kts 45°
2026-05-06 14:22 43.59328 7.33947 2614 ft 231 kts 46°
2026-05-06 14:22 43.60433 7.35543 2414 ft 229 kts 46°
2026-05-06 14:23 43.61531 7.37131 2220 ft 229 kts 46°
2026-05-06 14:23 43.62748 7.38526 2027 ft 227 kts 20°
2026-05-06 14:23 43.64245 7.38661 1998 ft 209 kts 335°
2026-05-06 14:23 43.65283 7.37455 2001 ft 194 kts 291°
2026-05-06 14:24 43.65683 7.35694 2033 ft 192 kts 282°
2026-05-06 14:24 43.66024 7.33908 2073 ft 187 kts 282°
2026-05-06 14:24 43.66445 7.32266 1877 ft 181 kts 296°
2026-05-06 14:24 43.67157 7.30856 1573 ft 177 kts 304°
2026-05-06 14:25 43.67894 7.29567 1283 ft 166 kts 303°
2026-05-06 14:25 43.68568 7.28360 1059 ft 151 kts 298°
2026-05-06 14:25 43.68907 7.27083 797 ft 137 kts 270°
2026-05-06 14:25 43.68809 7.25808 516 ft 132 kts 246°
2026-05-06 14:26 43.68354 7.24736 301 ft 127 kts 226°
2026-05-06 14:26 43.67722 7.23896 220 ft 126 kts 222°
2026-05-06 14:26 43.67096 7.23057 125 ft 125 kts 224°
2026-05-06 14:26 43.66484 7.22202 28 ft 120 kts 223°
2026-05-06 14:27 43.65982 7.21513 28 ft 77 kts 226°
2026-05-06 14:27 43.65693 7.21113 28 ft 41 kts 225°
2026-05-06 14:27 43.65627 7.20953 28 ft 11 kts 286°
2026-05-06 14:27 43.65658 7.20900 28 ft 4 kts 335°
2026-05-06 14:28 43.65715 7.20883 29 ft 12 kts 348°
2026-05-06 14:28 43.65797 7.20865 29 ft 12 kts 351°
2026-05-06 14:28 43.65885 7.20846 30 ft 13 kts 351°
2026-05-06 14:28 43.65979 7.20823 30 ft 13 kts 349°
2026-05-06 14:29 43.66060 7.20805 30 ft 12 kts 350°
2026-05-06 14:29 43.66141 7.20787 31 ft 8 kts 351°
2026-05-06 14:29 43.66181 7.20756 31 ft 5 kts 273°
2026-05-06 14:29 43.66175 7.20699 32 ft 6 kts 262°
2026-05-06 14:30 43.66171 7.20666 32 ft 1 kts 260°
2026-05-06 14:30 43.66170 7.20664 32 ft 0 kts 260°